Guymon, OK

11:36 PM CDT on October 17, 2017 (GMT -0500)
Guymon Municipal

Weather History for KGUY - September, 2013

Change the Weather History Date:

Monday, September 16, 2013

  Actual Average Record
Temperature  
Mean Temperature 67 °F 71 °F  
Max Temperature 72 °F 85 °F 99 °F (2015)
Min Temperature 61 °F 56 °F 43 °F (2012)
Degree Days  
Heating Degree Days 0 1  
Month to date heating degree days 0 6  
Since 1 July heating degree days 0 7  
Cooling Degree Days 2 7  
Month to date cooling degree days 193 142  
Year to date cooling degree days 1744 1391  
Growing Degree Days 16 (Base 50)    
Moisture  
Dew Point 61 °F    
Average Humidity 84    
Maximum Humidity 100    
Minimum Humidity 68    
Precipitation  
Precipitation 0.44 in 0.05 in 1.30 in (2001)
Month to date precipitation 2.10 0.99  
Year to date precipitation 12.65 15.76  
Snow  
Snow 0.00 in - - ()
Month to date snowfall 0.0  
Since 1 July snowfall 0.0  
Since 1 September snowfall 0.0  
Snow Depth 0.00 in    
Sea Level Pressure  
Sea Level Pressure 30.15 in    
Wind  
Wind Speed 5 mph (NE)    
Max Wind Speed 14 mph    
Max Gust Speed 18 mph    
Visibility 9 miles    
Events Rain    
T = Trace of Precipitation, MM = Missing Value Source: NWS Daily Summary

Daily Weather History Graph

Daily Weather History Graph

Search for Another Location

Airport or City:

Trip Planner

Search our weather history database for the weather conditions in past years. The results will help you decide how hot, cold, wet, or windy it might be!

Date:

Astronomy

Sep. 16, 2013 Rise Set
Actual Time 7:29 AM CDT 7:51 PM CDT
Civil Twilight 7:03 AM CDT 8:17 PM CDT
Nautical Twilight 6:33 AM CDT 8:47 PM CDT
Astronomical Twilight 6:02 AM CDT 9:18 PM CDT
Moon 5:59 PM CDT (9/16) 4:21 AM CDT (9/16)
Length of Visible Light 13h 14m
Length of Day
12h 22m
Waxing Gibbous, 90% of the Moon is Illuminated
Sep 16
Waxing Gibbous
Sep 19
Full
Sep 26
Last Quarter
Oct 4
New
Oct 11
First Quarter

Hourly Weather History & Observations

Time (CDT) Temp. Dew Point Humidity Pressure Visibility Wind Dir Wind Speed Gust Speed Precip Events Conditions
12:51 AM 62.6 °F 60.8 °F 94% 30.22 in 3.0 mi North 8.1 mph - 0.03 in Rain Light Rain
12:53 AM 62.1 °F 60.1 °F 93% 30.11 in 3.0 mi NNW 5.8 mph - 0.03 in Rain Light Rain
1:12 AM 62.6 °F 60.8 °F 94% 30.25 in 7.0 mi Calm Calm - 0.00 in Rain Light Rain
1:19 AM 60.8 °F 60.8 °F 100% 30.24 in 2.5 mi NW 4.6 mph - 0.01 in Rain Heavy Rain
1:22 AM 60.8 °F 60.8 °F 100% 30.23 in 1.8 mi North 8.1 mph - 0.11 in Rain Heavy Rain
1:29 AM 60.8 °F 59.0 °F 94% 30.22 in 2.0 mi North 8.1 mph - 0.29 in Rain Heavy Rain
1:38 AM 60.8 °F 60.8 °F 100% 30.22 in 5.0 mi NNE 5.8 mph - 0.33 in Rain Rain
1:53 AM 61.0 °F 60.1 °F 97% 30.09 in 7.0 mi NNE 8.1 mph - 0.34 in Rain Light Rain
2:14 AM 60.8 °F 60.8 °F 100% 30.20 in 9.0 mi NNE 9.2 mph - 0.00 in   Overcast
2:53 AM 61.0 °F 60.1 °F 97% 30.11 in 10.0 mi East 4.6 mph - 0.01 in Rain Light Rain
3:53 AM 61.0 °F 60.1 °F 97% 30.08 in 10.0 mi ENE 9.2 mph - 0.09 in Rain Light Rain
4:53 AM 62.1 °F 60.1 °F 93% 30.09 in 10.0 mi ENE 3.5 mph - 0.00 in   Overcast
5:53 AM 62.1 °F 60.1 °F 93% 30.10 in 10.0 mi NNE 4.6 mph - N/A   Overcast
6:53 AM 62.1 °F 60.1 °F 93% 30.10 in 10.0 mi NNE 3.5 mph - N/A   Overcast
7:49 AM 60.8 °F 60.8 °F 100% 30.21 in 10.0 mi North 6.9 mph - N/A   Overcast
7:53 AM 61.0 °F 60.1 °F 97% 30.11 in 10.0 mi North 6.9 mph - N/A   Overcast
8:40 AM 60.8 °F 60.8 °F 100% 30.23 in 4.0 mi North 4.6 mph - N/A   Overcast
8:49 AM 60.8 °F 60.8 °F 100% 30.24 in 6.0 mi NNW 6.9 mph - N/A   Overcast
8:53 AM 62.1 °F 60.1 °F 93% 30.15 in 8.0 mi NNW 5.8 mph - N/A   Overcast
9:53 AM 62.1 °F 60.1 °F 93% 30.15 in 10.0 mi North 4.6 mph - N/A   Overcast
10:26 AM 64.4 °F 60.8 °F 88% 30.24 in 10.0 mi North 3.5 mph - N/A   Overcast
10:41 AM 64.4 °F 60.8 °F 88% 30.24 in 10.0 mi North 4.6 mph - N/A   Overcast
10:53 AM 64.9 °F 60.1 °F 84% 30.15 in 10.0 mi Calm Calm - N/A   Overcast
11:06 AM 64.4 °F 59.0 °F 83% 30.25 in 10.0 mi NNE 3.5 mph - N/A   Overcast
11:53 AM 66.0 °F 60.1 °F 81% 30.16 in 10.0 mi North 3.5 mph - N/A   Overcast
12:43 PM 68.0 °F 60.8 °F 78% 30.25 in 10.0 mi Calm Calm - N/A   Overcast
12:53 PM 68.0 °F 60.1 °F 76% 30.16 in 10.0 mi Calm Calm - N/A   Overcast
1:53 PM 69.1 °F 60.1 °F 73% 30.14 in 10.0 mi Calm Calm - N/A   Overcast
2:53 PM 70.0 °F 61.0 °F 73% 30.11 in 10.0 mi ESE 4.6 mph - N/A   Overcast
3:53 PM 72.0 °F 61.0 °F 68% 30.08 in 10.0 mi Calm Calm - 0.00 in   Overcast
4:04 PM 71.6 °F 60.8 °F 69% 30.17 in 10.0 mi ENE 3.5 mph - N/A   Overcast
4:31 PM 71.6 °F 60.8 °F 69% 30.16 in 10.0 mi NNE 3.5 mph - N/A   Overcast
4:53 PM 71.1 °F 62.1 °F 73% 30.05 in 10.0 mi ESE 8.1 mph - N/A   Overcast
5:01 PM 71.6 °F 62.6 °F 73% 30.15 in 10.0 mi East 6.9 mph - N/A   Overcast
5:53 PM 70.0 °F 62.1 °F 76% 30.05 in 10.0 mi SSE 4.6 mph - N/A   Partly Cloudy
6:53 PM 70.0 °F 62.1 °F 76% 30.04 in 10.0 mi ESE 6.9 mph - N/A   Clear
7:53 PM 68.0 °F 62.1 °F 81% 30.04 in 10.0 mi East 6.9 mph - N/A   Clear
8:53 PM 66.0 °F 62.1 °F 87% 30.05 in 10.0 mi East 5.8 mph - N/A   Clear
9:53 PM 66.0 °F 62.1 °F 87% 30.08 in 10.0 mi SE 9.2 mph - N/A   Mostly Cloudy
10:00 PM 66.2 °F 62.6 °F 88% 30.17 in 10.0 mi SE 10.4 mph - N/A   Mostly Cloudy
10:19 PM 66.2 °F 62.6 °F 88% 30.17 in 10.0 mi SE 10.4 mph - N/A   Scattered Clouds
10:53 PM 64.9 °F 63.0 °F 93% 30.07 in 10.0 mi ESE 9.2 mph - N/A   Clear
11:11 PM 64.4 °F 62.6 °F 94% 30.17 in 9.0 mi SE 9.2 mph - N/A   Mostly Cloudy
11:53 PM 64.9 °F 63.0 °F 93% 30.07 in 9.0 mi SE 9.2 mph - N/A   Partly Cloudy